Regional Weather Roundup
Issued by NWS Green Bay, WI

Home | Current Version | Previous Version | Text Only | Print | Product List | Glossary On
Versions: 1 2 3 4 5 6 7 8 9 10 11 12 13 14 15 16 17 18 19 20 21 22 23 24 25 26 27 28 29 30 31 32 33 34 35 36 37 38 39 40 41 42 43 44 45 46 47 48 49 50
000
ASUS43 KGRB 141510
RWRGRB

NORTH-CENTRAL AND NORTHEAST WISCONSIN REGIONAL WEATHER ROUNDUP
NATIONAL WEATHER SERVICE GREEN BAY WI
1000 AM CDT SUN SEP 14 2014

WIZ005-009-010>012-018-019-141600-
NORTH CENTRAL WISCONSIN

CITY           SKY/WX    TMP DP  RH WIND       PRES   REMARKS
IRONWOOD       CLOUDY    50  46  87 SW16G24   30.02S
MANITOWISH WTR CLOUDY    49  42  77 SW10G18   30.07F
ARBOR VITAE    PTSUNNY   52  43  71 SW12G20   30.08S
EAGLE RIVER    PTSUNNY   52  40  62 SW13G20   30.08F
LAND O LAKES   PTSUNNY   52  41  66 S10G18    30.07F
RHINELANDER    MOSUNNY   52  41  66 SW14G22   30.11F
PHILLIPS       CLOUDY    52  43  72 SW15G22   30.09S
ANTIGO         MOSUNNY   53  42  67 SW16G22   30.16F
TOMAHAWK       MOSUNNY   53  42  66 S7        30.11F
MERRILL        PTSUNNY   55  43  63 SW14G24   30.13F
$$

WIZ013-073-141600-
NORTHEAST WISCONSIN

CITY           SKY/WX    TMP DP  RH WIND       PRES   REMARKS
IRON MOUNTAIN  PTSUNNY   53  42  66 S14G22    30.13F
MARINETTE      CLOUDY    52  41  66 SW10      30.19F
OCONTO         CLOUDY    52  43  71 SW9       30.21F
$$

WIZ017-030-035>037-045-141600-
CENTRAL WISCONSIN

CITY           SKY/WX    TMP DP  RH WIND       PRES   REMARKS
MEDFORD        SUNNY     53  42  65 SW15G22   30.13S
WAUSAU         SUNNY     54  42  64 SW13      30.15F
MOSINEE        SUNNY     54  45  71 SW17G23   30.18F
MARSHFIELD     SUNNY     56  42  59 SW18G24   30.16F
WISC RAPIDS    SUNNY     56  43  61 S14G20    30.20F
STEVENS POINT  MOSUNNY   51  40  66 S14G22    30.19F
WAUPACA        CLOUDY    53  43  68 S10       30.22F
SHAWANO        CLOUDY    54  42  64 SW8       30.21F
CLINTONVILLE   MOSUNNY   52  41  66 SW12      30.21F
$$

WIZ038-039-048-051-141600-
FOX VALLEY

CITY           SKY/WX    TMP DP  RH WIND       PRES   REMARKS
NWS GREEN BAY  CLOUDY    54  43  66 SW8       30.23F
APPLETON       PTSUNNY   52  41  66 SW10      30.24F
OSHKOSH        CLOUDY    52  42  69 SW10      30.25S
FOND DU LAC    CLOUDY    53  43  68 SW9       30.26S
$$

WIZ022-050-052-141600-
EAST CENTRAL WISCONSIN

CITY           SKY/WX    TMP DP  RH WIND       PRES   REMARKS
STURGEON BAY   CLOUDY    54  39  58 SW12      30.22S
MANITOWOC      MOSUNNY   58  41  53 SW16      30.25F
SHEBOYGAN        N/A     57  40  52 SW13      30.26F
$$

LMZ563-521-522-541>543-141600-
LAKESHORE

STATION/POSITION TIME  TEMP    WIND        PRES    VSBY  WAVE
                       AIR SEA DIR/SP/G                  HT/PER
                 (UTC) (F)     (DEG/KT/KT) (MB)    (MI)  (FT/S)
SHEBOYGAN LKSHOR 1500   55 52  220/ 12/ 15 1025.2F
KEWAUNEE LKSHORE 1500   55     200/ 11/ 15 1022.8F
NORTHPORT PIER   1500   57     220/  7/ 11 1022.7S
N MID LAKE BUOY  1500   56 59  220/ 19/ 23 1022.8F         4/ 5
S GREEN BAY BUOY 1500   56     VRB 19/ 25  1023.8F
CHAMBERS ISLAND  1500   55     200/  7/ 14 1023.0S
MENOMINEE LKSHOR 1500   53     210/ 11/ 16 1023.2F
$$


USA.gov is the U.S. government's official web portal to all federal, state and local government web resources and services.